• Em Portugal
  • Lista de países
  • Para 7 dias
  • Temperatura da água
  • Mapas de satélite
  • Mapa do tempo
  • Widgets de tempo
  • user-avatar
    Iniciar Sessão

    Previsão horária em Wyzne

    Hoje, 25 Setembro, Terça-feira

    Tempo Temperatura Precipitação Vento Pressão Humidade
    00:00 +4°C° 0 mm 6 m/s 748 mmHg 77%
    01:00 +5°C° 0 mm 5 m/s 748 mmHg 82%
    02:00 +3°C° 0 mm 5 m/s 749 mmHg 82%
    03:00 +3°C° 0 mm 5 m/s 749 mmHg 82%
    04:00 +3°C° 0 mm 5 m/s 749 mmHg 83%
    05:00 +3°C° 0 mm 6 m/s 750 mmHg 81%
    06:00 +3°C° 0 mm 6 m/s 750 mmHg 80%
    07:00 +4°C° 0 mm 7 m/s 751 mmHg 78%
    08:00 +5°C° 0 mm 7 m/s 752 mmHg 72%
    09:00 +8°C° 0 mm 7 m/s 752 mmHg 66%
    10:00 +9°C° 0 mm 7 m/s 752 mmHg 60%
    11:00 +9°C° 0.2 mm 7 m/s 753 mmHg 57%
    12:00 +10°C° 0.2 mm 7 m/s 753 mmHg 54%
    13:00 +11°C° 0.2 mm 7 m/s 753 mmHg 52%
    14:00 +10°C° 0.1 mm 6 m/s 753 mmHg 53%
    15:00 +10°C° 0.1 mm 5 m/s 754 mmHg 54%
    16:00 +10°C° 0.1 mm 5 m/s 754 mmHg 56%
    17:00 +10°C° 0 mm 4 m/s 754 mmHg 58%
    18:00 +8°C° 0 mm 3 m/s 755 mmHg 61%
    19:00 +7°C° 0 mm 3 m/s 755 mmHg 64%
    20:00 +7°C° 0 mm 3 m/s 756 mmHg 65%
    21:00 +5°C° 0 mm 3 m/s 756 mmHg 67%
    22:00 +5°C° 0 mm 2 m/s 757 mmHg 69%
    23:00 +5°C° 0 mm 2 m/s 757 mmHg 72%

    Amanhã, 26 Setembro, Quarta-feira

    Tempo Temperatura Precipitação Vento Pressão Humidade
    00:00 +4°C° 0 mm 2 m/s 758 mmHg 75%
    01:00 +4°C° 0 mm 2 m/s 758 mmHg 78%
    02:00 +3°C° 0 mm 2 m/s 758 mmHg 80%
    03:00 +3°C° 0 mm 2 m/s 758 mmHg 82%
    04:00 +3°C° 0 mm 2 m/s 758 mmHg 84%
    05:00 +3°C° 0 mm 2 m/s 758 mmHg 82%
    06:00 +4°C° 0 mm 2 m/s 759 mmHg 79%
    07:00 +5°C° 0 mm 2 m/s 759 mmHg 77%
    08:00 +7°C° 0 mm 2 m/s 759 mmHg 70%
    09:00 +9°C° 0 mm 3 m/s 759 mmHg 62%
    10:00 +11°C° 0 mm 3 m/s 758 mmHg 55%
    11:00 +12°C° 0 mm 3 m/s 758 mmHg 51%
    12:00 +13°C° 0 mm 3 m/s 757 mmHg 48%
    13:00 +14°C° 0 mm 3 m/s 757 mmHg 44%
    14:00 +14°C° 0 mm 3 m/s 756 mmHg 47%
    15:00 +14°C° 0 mm 2 m/s 756 mmHg 50%
    16:00 +14°C° 0 mm 2 m/s 755 mmHg 52%
    17:00 +13°C° 0 mm 2 m/s 755 mmHg 53%
    18:00 +12°C° 0 mm 2 m/s 755 mmHg 53%
    19:00 +10°C° 0 mm 2 m/s 755 mmHg 54%
    20:00 +10°C° 0 mm 3 m/s 755 mmHg 55%
    21:00 +10°C° 0 mm 3 m/s 755 mmHg 56%
    22:00 +10°C° 0 mm 4 m/s 754 mmHg 57%
    23:00 +10°C° 0 mm 4 m/s 754 mmHg 56%

    Depois de amanhã, 27 Setembro, Quinta-feira

    Tempo Temperatura Precipitação Vento Pressão Humidade
    00:00 +10°C° 0 mm 4 m/s 754 mmHg 55%
    01:00 +10°C° 0 mm 4 m/s 754 mmHg 55%
    02:00 +10°C° 0 mm 4 m/s 753 mmHg 54%
    03:00 +9°C° 0 mm 5 m/s 753 mmHg 52%
    04:00 +9°C° 0 mm 5 m/s 752 mmHg 51%
    05:00 +9°C° 0 mm 5 m/s 752 mmHg 51%
    06:00 +9°C° 0 mm 5 m/s 752 mmHg 50%
    07:00 +10°C° 0 mm 5 m/s 752 mmHg 50%
    08:00 +12°C° 0 mm 5 m/s 752 mmHg 50%
    09:00 +13°C° 0 mm 5 m/s 752 mmHg 49%
    10:00 +14°C° 0 mm 5 m/s 752 mmHg 49%
    11:00 +15°C° 0 mm 5 m/s 752 mmHg 49%
    12:00 +16°C° 0 mm 5 m/s 752 mmHg 50%
    13:00 +19°C° 0 mm 6 m/s 751 mmHg 50%
    14:00 +19°C° 0 mm 5 m/s 751 mmHg 52%
    15:00 +18°C° 0 mm 4 m/s 751 mmHg 55%
    16:00 +18°C° 0 mm 4 m/s 751 mmHg 58%
    17:00 +17°C° 0 mm 4 m/s 751 mmHg 60%
    18:00 +14°C° 0 mm 3 m/s 751 mmHg 63%
    19:00 +12°C° 0 mm 3 m/s 751 mmHg 65%
    20:00 +12°C° 0 mm 3 m/s 751 mmHg 65%
    21:00 +12°C° 0 mm 3 m/s 750 mmHg 65%
    22:00 +11°C° 0 mm 3 m/s 750 mmHg 65%
    23:00 +11°C° 0 mm 3 m/s 750 mmHg 65%

    28 Setembro, Sexta-feira

    Tempo Temperatura Precipitação Vento Pressão Humidade
    00:00 +11°C° 0 mm 3 m/s 749 mmHg 65%
    01:00 +10°C° 0 mm 3 m/s 749 mmHg 64%
    02:00 +10°C° 0 mm 3 m/s 748 mmHg 63%
    03:00 +10°C° 0 mm 3 m/s 748 mmHg 63%
    04:00 +10°C° 0 mm 3 m/s 747 mmHg 62%
    05:00 +10°C° 0 mm 4 m/s 747 mmHg 61%
    06:00 +11°C° 0 mm 4 m/s 747 mmHg 61%
    07:00 +11°C° 0 mm 4 m/s 746 mmHg 60%
    08:00 +13°C° 0 mm 4 m/s 746 mmHg 57%
    09:00 +15°C° 0 mm 5 m/s 746 mmHg 53%
    10:00 +19°C° 0 mm 5 m/s 745 mmHg 50%
    11:00 +20°C° 0 mm 5 m/s 745 mmHg 48%
    12:00 +21°C° 0 mm 5 m/s 745 mmHg 45%
    13:00 +22°C° 0 mm 5 m/s 744 mmHg 43%
    14:00 +21°C° 0 mm 4 m/s 744 mmHg 46%
    15:00 +20°C° 0 mm 4 m/s 744 mmHg 48%
    16:00 +20°C° 0 mm 3 m/s 743 mmHg 51%
    17:00 +18°C° 0 mm 3 m/s 744 mmHg 54%
    18:00 +16°C° 0 mm 2 m/s 744 mmHg 58%
    19:00 +15°C° 0 mm 2 m/s 744 mmHg 61%
    20:00 +14°C° 0 mm 2 m/s 744 mmHg 67%
    21:00 +13°C° 0 mm 2 m/s 745 mmHg 74%
    22:00 +12°C° 0 mm 2 m/s 745 mmHg 80%
    23:00 +10°C° 0 mm 2 m/s 745 mmHg 84%

    29 Setembro, Sábado

    Tempo Temperatura Precipitação Vento Pressão Humidade
    00:00 +11°C° 0 mm 1 m/s 745 mmHg 88%
    01:00 +11°C° 0 mm 1 m/s 745 mmHg 92%
    02:00 +11°C° 0 mm 1 m/s 745 mmHg 90%
    03:00 +10°C° 0 mm 2 m/s 745 mmHg 88%
    04:00 +10°C° 0 mm 2 m/s 745 mmHg 86%
    05:00 +10°C° 0 mm 2 m/s 746 mmHg 84%
    06:00 +10°C° 0 mm 2 m/s 746 mmHg 81%
    07:00 +10°C° 0 mm 3 m/s 747 mmHg 79%
    08:00 +11°C° 0.1 mm 3 m/s 747 mmHg 72%
    09:00 +12°C° 0.1 mm 4 m/s 747 mmHg 65%
    10:00 +13°C° 0.1 mm 4 m/s 748 mmHg 58%
    11:00 +14°C° 0.1 mm 4 m/s 748 mmHg 55%
    12:00 +14°C° 0.1 mm 5 m/s 748 mmHg 53%
    13:00 +14°C° 0.1 mm 5 m/s 748 mmHg 50%
    14:00 +14°C° 0 mm 5 m/s 748 mmHg 52%
    15:00 +13°C° 0 mm 4 m/s 748 mmHg 55%
    16:00 +13°C° 0 mm 4 m/s 749 mmHg 57%
    17:00 +11°C° 0 mm 4 m/s 749 mmHg 63%
    18:00 +10°C° 0 mm 3 m/s 750 mmHg 69%
    19:00 +8°C° 0 mm 3 m/s 750 mmHg 75%
    20:00 +8°C° 0 mm 3 m/s 750 mmHg 77%
    21:00 +7°C° 0 mm 3 m/s 751 mmHg 79%
    22:00 +5°C° 0 mm 3 m/s 751 mmHg 81%
    23:00 +5°C° 0 mm 3 m/s 751 mmHg 82%

    30 Setembro, Domingo

    Tempo Temperatura Precipitação Vento Pressão Humidade
    00:00 +6°C° 0 mm 2 m/s 751 mmHg 84%
    01:00 +5°C° 0 mm 2 m/s 751 mmHg 85%
    02:00 +5°C° 0 mm 2 m/s 751 mmHg 86%
    03:00 +4°C° 0 mm 2 m/s 751 mmHg 87%
    04:00 +4°C° 0 mm 2 m/s 751 mmHg 89%
    05:00 +5°C° 0 mm 2 m/s 750 mmHg 86%
    06:00 +4°C° 0 mm 3 m/s 750 mmHg 83%
    07:00 +5°C° 0 mm 3 m/s 750 mmHg 80%
    08:00 +7°C° 0 mm 4 m/s 750 mmHg 71%
    09:00 +10°C° 0 mm 4 m/s 750 mmHg 62%
    10:00 +12°C° 0 mm 5 m/s 750 mmHg 53%
    11:00 +13°C° 0 mm 5 m/s 749 mmHg 52%
    12:00 +14°C° 0 mm 5 m/s 749 mmHg 51%
    13:00 +15°C° 0 mm 4 m/s 748 mmHg 49%
    14:00 +15°C° 0 mm 4 m/s 747 mmHg 53%
    15:00 +14°C° 0 mm 4 m/s 747 mmHg 56%
    16:00 +14°C° 0 mm 4 m/s 746 mmHg 59%
    17:00 +12°C° 0 mm 3 m/s 746 mmHg 64%
    18:00 +11°C° 0 mm 3 m/s 746 mmHg 69%
    19:00 +9°C° 0 mm 3 m/s 746 mmHg 74%
    20:00 +9°C° 0 mm 3 m/s 746 mmHg 76%
    21:00 +9°C° 0 mm 3 m/s 746 mmHg 78%
    22:00 +8°C° 0 mm 2 m/s 745 mmHg 80%
    23:00 +8°C° 0 mm 2 m/s 745 mmHg 81%
    Mostrar mais